Location: Crescent
(42.8242°N, 73.7329°W)
Time: 21:42:35
(UTC+00:00)

Vanguard 3 - All Passes

Search period start: 18 February 2026 00:00
Search period end: 28 February 2026 00:00
Orbit: 507 x 3205 km, 33.3° (Epoch: 18 February)

Date Brightness Start Highest point End Pass type
(mag) Time Alt. Az. Time Alt. Az. Time Alt. Az.
18 Feb - 01:41:57 10° SW 01:44:03 13° SSW 01:45:56 10° S visible
18 Feb - 17:44:29 10° S 17:49:05 12° SSE 17:53:03 10° SE daylight
18 Feb - 19:51:59 10° SW 20:01:25 27° SSE 20:07:39 10° ESE daylight
18 Feb - 22:04:54 10° WSW 22:12:52 36° S 22:17:51 10° ESE daylight
19 Feb - 00:18:30 10° WSW 00:23:15 24° SSW 00:26:45 10° SE visible
19 Feb - 18:29:31 10° SSW 18:39:01 21° SSE 18:45:50 10° ESE daylight
19 Feb - 20:41:12 10° SW 20:51:08 35° S 20:57:14 10° ESE daylight
19 Feb - 22:55:04 10° WSW 23:02:12 35° S 23:06:45 10° ESE visible
20 Feb - 01:09:14 10° WSW 01:12:06 15° SSW 01:14:31 10° S visible
20 Feb - 17:08:55 10° S 17:16:16 15° SSE 17:22:16 10° ESE daylight
20 Feb - 19:17:38 10° SW 19:28:54 31° SSE 19:36:10 10° ESE daylight
20 Feb - 21:31:10 10° WSW 21:40:42 40° S 21:46:24 10° ESE daylight
20 Feb - 23:45:26 10° WSW 23:51:18 28° SSW 23:55:18 10° SE visible
21 Feb - 17:54:50 10° SSW 18:06:14 25° SSE 18:14:19 10° ESE daylight
21 Feb - 20:07:03 10° SW 20:18:43 39° S 20:25:43 10° ESE daylight
21 Feb - 22:21:32 10° WSW 22:30:06 39° S 22:35:19 10° ESE daylight
22 Feb - 00:36:15 10° WSW 00:40:07 17° SSW 00:43:09 10° S visible
22 Feb - 16:33:49 10° S 16:43:15 17° SSE 16:50:51 10° ESE daylight
22 Feb - 18:43:10 10° SW 18:56:12 35° SSE 19:04:32 10° ESE daylight
22 Feb - 20:57:12 10° WSW 21:08:22 44° S 21:14:53 10° ESE daylight
22 Feb - 23:12:05 10° WSW 23:19:15 31° SSW 23:23:52 10° SE visible
23 Feb - 17:20:11 10° SSW 17:33:14 28° SSE 17:42:33 10° ESE daylight
23 Feb - 19:32:44 10° SW 19:46:04 43° S 19:54:05 10° ESE daylight
23 Feb - 21:47:45 10° WSW 21:57:52 43° S 22:03:48 10° ESE daylight
24 Feb - 00:03:00 10° WSW 00:08:04 20° SSW 00:11:46 10° SSE visible
24 Feb - 15:58:58 10° S 16:10:02 20° SE 16:19:02 10° ESE daylight
24 Feb - 18:08:40 10° SW 18:23:15 38° SSE 18:32:44 10° E daylight
24 Feb - 20:23:02 10° WSW 20:35:52 48° S 20:43:18 10° ESE daylight
24 Feb - 22:38:29 10° W 22:47:05 35° SSW 22:52:24 10° SE daylight
25 Feb - 14:42:45 10° SSE 14:46:50 11° SE 14:50:42 10° SE daylight
25 Feb - 16:45:36 10° SSW 17:00:01 30° SSE 17:10:34 10° E daylight
25 Feb - 18:58:19 10° SW 19:13:14 47° S 19:22:19 10° E daylight
25 Feb - 21:13:43 10° WSW 21:25:28 47° S 21:32:14 10° ESE daylight
25 Feb - 23:29:31 10° W 23:35:56 23° SSW 23:40:22 10° SSE visible
26 Feb - 15:24:21 10° S 15:36:38 21° SE 15:46:53 10° ESE daylight
26 Feb - 17:34:09 10° SW 17:50:06 41° SSE 18:00:47 10° E daylight
26 Feb - 19:48:43 10° WSW 20:03:08 52° S 20:11:35 10° ESE daylight
26 Feb - 22:04:36 10° W 22:14:46 39° SSW 22:20:52 10° SE daylight
27 Feb - 00:22:02 10° WSW 00:24:23 12° SW 00:26:27 10° SSW visible
27 Feb - 14:07:22 10° SSE 14:13:24 12° SE 14:19:07 10° ESE daylight
27 Feb - 16:11:08 10° SSW 16:26:36 32° SSE 16:38:22 10° E daylight
27 Feb - 18:23:52 10° WSW 18:40:10 50° S 18:50:26 10° E daylight
27 Feb - 20:39:30 10° WSW 20:52:52 50° S 21:00:36 10° ESE daylight
27 Feb - 22:55:45 10° W 23:03:40 26° SSW 23:08:54 10° SSE visible
